Flag for Cote d'Ivoire (Ivory Coast) Weather past 2 weeks in Abidjan, Cote d'Ivoire (Ivory Coast)

Now
75 °F

Broken clouds.


Feels Like: 74 °F
Forecast: 75 / 80 °F
Wind: 7 mph from Southwest

Location: Abidjan Airport

Current Time: Aug 21, 2014 at 8:37:48 AM

Latest Report: Aug 21, 2014 at 8:00 AM


Visibility: 6 mi

Pressure: 29.98 "Hg

Humidity: 94%

Dew point: 73 °F

Location of AbidjanLocation

Historic Weather in Abidjan — Graph

°F

Abidjan temperature yesterday

Maximum temperature yesterday: 81 °F (at 1:30 PM)
Minimum temperature yesterday: 73 °F (at 1:00 AM)
Average temperature yesterday: 76 °F

Past Weeks' High & Low Weather Summary

 TemperatureHumidityPressure
High81 °F (Aug 9, 11:00 AM)100% (Aug 6, 9:30 PM)30.04 "Hg (Aug 6, 9:30 PM)
Low68 °F (Aug 15, 6:00 AM)66% (Aug 14, 11:30 AM)29.86 "Hg (Aug 12, 3:30 PM)
Average76 °F90%29.93 "Hg
* Reported Aug 6 7:00 AM — Aug 21 7:30 AM, Abidjan, Weather by CustomWeather, © 2014

Note: Actual official high and low records may vary slightly from our data, if they occured in-between our weather recording intervals... More about our weather records

Advertising

Abidjan weather history for previous 24 hours

 ConditionsComfort  
Time TempWeatherWind HumidityBarometerVisibility
7:30 AM
Aug 21
75 °FScattered clouds.6 mph94%29.98 "Hg5 mi
7:00 AM73 °FPartly sunny.5 mph100%29.95 "Hg4 mi
6:30 AM73 °FPartly sunny.5 mph94%29.95 "Hg4 mi
6:00 AM73 °FPassing clouds.5 mph100%29.95 "Hg4 mi
5:30 AM73 °FPartly cloudy.6 mph100%29.95 "Hg4 mi
5:00 AM73 °FPartly cloudy.7 mph100%29.92 "Hg4 mi
4:30 AM73 °FPartly cloudy.6 mph100%29.92 "Hg4 mi
4:00 AM73 °FPartly cloudy.6 mph100%29.92 "Hg4 mi
3:30 AM73 °FPartly cloudy.7 mph100%29.92 "Hg4 mi
3:00 AM73 °FPartly cloudy.6 mph100%29.92 "Hg4 mi
2:30 AM73 °FPartly cloudy.6 mph100%29.92 "Hg4 mi
2:00 AM73 °FPassing clouds.6 mph100%29.92 "Hg6 mi
1:30 AM73 °FPartly cloudy.6 mph100%29.92 "Hg6 mi
1:00 AM73 °FPassing clouds.6 mph100%29.92 "Hg6 mi
12:30 AM73 °FPartly cloudy.6 mph100%29.95 "Hg6 mi
12:00 AM75 °FPartly cloudy.7 mph94%29.95 "Hg5 mi
11:30 PM
Aug 20
75 °FDrizzle. Mostly cloudy.7 mph94%29.95 "Hg5 mi
11:00 PM75 °FPassing clouds.8 mph94%29.95 "HgN/A
10:30 PM75 °FPassing clouds.7 mph94%29.95 "HgN/A
10:00 PM75 °FPassing clouds.7 mph94%29.95 "HgN/A
9:30 PM75 °FPassing clouds.7 mph94%29.95 "HgN/A
9:00 PM75 °FPassing clouds.7 mph94%29.95 "HgN/A
8:30 PM75 °FPartly cloudy.7 mph94%29.92 "HgN/A
8:00 PM75 °FPartly cloudy.6 mph94%29.92 "HgN/A
7:30 PM75 °FPartly cloudy.8 mph94%29.89 "HgN/A
7:00 PM75 °FPartly cloudy.10 mph94%29.89 "HgN/A
6:30 PM77 °FPartly cloudy.9 mph89%29.89 "HgN/A
6:00 PM77 °FBroken clouds.10 mph89%29.86 "HgN/A
5:30 PM77 °FBroken clouds.9 mph89%29.86 "HgN/A
5:00 PM79 °FBroken clouds.10 mph89%29.86 "HgN/A
4:30 PM79 °FBroken clouds.12 mph89%29.86 "HgN/A
4:00 PM81 °FBroken clouds.12 mph84%29.86 "HgN/A
3:30 PM79 °FBroken clouds.12 mph89%29.86 "HgN/A
3:00 PM79 °FMore clouds than sun.10 mph89%29.86 "HgN/A
2:30 PM79 °FMore clouds than sun.13 mph89%29.86 "HgN/A
2:00 PM81 °FMore clouds than sun.14 mph84%29.86 "HgN/A
1:30 PM81 °FBroken clouds.13 mph84%29.89 "HgN/A
1:00 PM79 °FPartly sunny.13 mph89%29.92 "Hg6 mi
12:30 PM79 °FPartly sunny.13 mph89%29.92 "Hg6 mi
12:00 PM79 °FPartly sunny.12 mph89%29.92 "Hg6 mi
11:30 AM77 °FPartly sunny.13 mph94%29.95 "Hg6 mi
11:00 AM77 °FPartly sunny.9 mph94%29.95 "Hg6 mi
10:30 AM75 °FPartly sunny.8 mph100%29.95 "Hg6 mi
10:00 AM77 °FPartly sunny.8 mph94%29.95 "Hg6 mi
9:30 AM75 °FPartly sunny.8 mph100%29.95 "Hg6 mi
9:00 AM77 °FBroken clouds.10 mph94%29.95 "Hg6 mi
8:30 AM75 °FBroken clouds.10 mph100%29.92 "Hg5 mi
8:00 AM75 °FPartly sunny.9 mph94%29.92 "Hg5 mi
Weather by CustomWeather, © 2014

See weather overviewHow to use our weather pages